OE3MQP-13 Weather Reports


time (UTC)temp
C
wind
direction
speed
KPH
gust
KPH
rain 1hr
cm
rain 24hr
cm
rain mn
cm
humidity
%
barometer
mb
20260905221927 15 0.0 0.0 0.00 0.00 0.00 63
20260905215728 15 0.0 0.0 0.00 0.00 0.00 60
20260905213827 16 0.0 0.0 0.00 0.00 0.00 59
20260905210027 16 0.0 0.0 0.00 0.00 0.00 60
20260905205727 16 0.0 0.0 0.00 0.00 0.00 60
20260905201927 17 0.0 0.0 0.00 0.00 0.00 61
20260905200028 17 0.0 0.0 0.00 0.00 0.00 61
20260905195727 -17 0.0 0.0 0.00 0.00 0.00
20260905193827 -17 0.0 0.0 0.00 0.00 0.00
20260905191927 17 0.0 0.0 0.00 0.00 0.00 61
20260905190028 17 0.0 0.0 0.00 0.00 0.00 61
20260905185727 -17 0.0 0.0 0.00 0.00 0.00
20260905183827 -17 0.0 0.0 0.00 0.00 0.00
20260905181927 18 0.0 0.0 0.00 0.00 0.00 59
20260905180028 18 0.0 0.0 0.00 0.00 0.00 58
20260905175726 -17 0.0 0.0 0.00 0.00 0.00
20260905173827 -17 0.0 0.0 0.00 0.00 0.00
20260905171927 -17 0.0 0.0 0.00 0.00 0.00
20260905170027 20 0.0 0.0 0.00 0.00 0.00 54
20260905165727 -17 0.0 0.0 0.00 0.00 0.00
20260905163827 -17 0.0 0.0 0.00 0.00 0.00
20260905161927 -17 0.0 0.0 0.00 0.00 0.00
20260905155729 -17 0.0 0.0 0.00 0.00 0.00
20260905153827 -17 0.0 0.0 0.00 0.00 0.00
20260905151928 22 0.0 0.0 0.00 0.00 0.00 49
20260905150028 22 0.0 0.0 0.00 0.00 0.00 49
20260905145727 22 0.0 0.0 0.00 0.00 0.00 49
20260905143827 22 0.0 0.0 0.00 0.00 0.00 50
20260905141928 22 0.0 0.0 0.00 0.00 0.00 49
20260905140028 22 0.0 0.0 0.00 0.00 0.00 49
20260905135728 22 0.0 0.0 0.00 0.00 0.00 48
20260905133827 22 0.0 0.0 0.00 0.00 0.00 48
20260905131927 22 0.0 0.0 0.00 0.00 0.00 50
20260905130028 22 0.0 0.0 0.00 0.00 0.00 51
20260905125727 -17 0.0 0.0 0.00 0.00 0.00
20260905123828 -17 0.0 0.0 0.00 0.00 0.00
20260905121928 21 0.0 0.0 0.00 0.00 0.00 61
20260905120027 21 0.0 0.0 0.00 0.00 0.00 61
20260905115727 -17 0.0 0.0 0.00 0.00 0.00
20260905113827 -17 0.0 0.0 0.00 0.00 0.00
20260905111928 20 0.0 0.0 0.00 0.00 0.00 58
20260905110028 20 0.0 0.0 0.00 0.00 0.00 55
20260905105727 -17 0.0 0.0 0.00 0.00 0.00
20260905103827 -17 0.0 0.0 0.00 0.00 0.00
20260905101927 -17 0.0 0.0 0.00 0.00 0.00
20260905100028 18 0.0 0.0 0.00 0.00 0.00 65
20260905095729 -17 0.0 0.0 0.00 0.00 0.00
20260905091928 21 0.0 0.0 0.00 0.00 0.00 71
20260905090027 21 0.0 0.0 0.00 0.00 0.00 79
20260905085727 20 0.0 0.0 0.00 0.00 0.00 84
20260905083827 16 0.0 0.0 0.00 0.00 0.00 90
20260905081927 15 0.0 0.0 0.00 0.00 0.00 88
20260905080028 15 0.0 0.0 0.00 0.00 0.00 88
20260905075727 15 0.0 0.0 0.00 0.00 0.00 88
20260905073827 15 0.0 0.0 0.00 0.00 0.00 90
20260905071927 13 0.0 0.0 0.00 0.00 0.00 90
20260905070028 13 0.0 0.0 0.00 0.00 0.00 90
20260905065727 -17 0.0 0.0 0.00 0.00 0.00
20260905063827 -17 0.0 0.0 0.00 0.00 0.00
20260905061928 13 0.0 0.0 0.00 0.00 0.00 90
20260905060027 13 0.0 0.0 0.00 0.00 0.00 90
20260905055727 -17 0.0 0.0 0.00 0.00 0.00
20260905053828 -17 0.0 0.0 0.00 0.00 0.00
20260905051927 13 0.0 0.0 0.00 0.00 0.00 89
20260905050027 13 0.0 0.0 0.00 0.00 0.00 89
20260905045727 -17 0.0 0.0 0.00 0.00 0.00
20260905043826 -17 0.0 0.0 0.00 0.00 0.00
20260905041928 14 0.0 0.0 0.00 0.00 0.00 89
20260905040029 14 0.0 0.0 0.00 0.00 0.00 88
20260905035728 14 0.0 0.0 0.00 0.00 0.00 88
20260905033827 14 0.0 0.0 0.00 0.00 0.00 87
20260905023828 17 0.0 0.0 0.00 0.00 0.00 67
20260905021927 17 0.0 0.0 0.00 0.00 0.00 66
20260905020027 17 0.0 0.0 0.00 0.00 0.00 68
20260905015727 -17 0.0 0.0 0.00 0.00 0.00
20260905013828 18 0.0 0.0 0.00 0.00 0.00 67
20260905011928 20 0.0 0.0 0.00 0.00 0.00 64
20260905010027 22 0.0 0.0 0.00 0.00 0.00 56
20260905005728 22 0.0 0.0 0.00 0.00 0.00 56
20260905003829 22 0.0 0.0 0.00 0.00 0.00 56
20260904235728 22 0.0 0.0 0.00 0.00 0.00 57
20260904233826 -17 0.0 0.0 0.00 0.00 0.00
20260904231928 21 0.0 0.0 0.00 0.00 0.00 61
20260904230027 20 0.0 0.0 0.00 0.00 0.00 62
20260904225727 -17 0.0 0.0 0.00 0.00 0.00
20260904223827 -17 0.0 0.0 0.00 0.00 0.00